Temperature
19 18 17 17 17 17 17 17 17 17 17 17 17 17 17 17 17 17 17 17 16 16 16 16 16 16 16 15 15 15 15 16 16 16 16 16 16 16 16 16 16 16 16
19 18 17 17 17 17 17 17 17 17 17 17 17 17 17 17 17 17 17 16 16 16 16 16 16 16 15 15 15 15 16 16 16 16 17 17 17 16 16 16 16 16 16
19 18 17 17 17 16 17 17 17 17 17 17 17 17 17 17 17 16 16 16 16 16 16 16 15 15 15 15 15 15 15 16 16 16 17 18 18 18 17 16 16 15 16
20 18 17 17 17 17 16 17 17 17 17 17 17 17 17 17 17 16 16 16 16 16 16 15 15 15 15 15 15 15 15 15 16 16 16 16 17 18 18 17 16 16 15
20 19 18 17 17 17 16 16 16 17 17 17 17 17 17 17 17 16 16 16 16 16 16 15 15 15 15 15 15 15 15 15 16 16 16 16 16 16 17 18 17 17 16
20 19 18 17 17 17 16 16 16 17 17 17 17 17 17 17 17 16 16 16 16 16 16 15 15 15 15 15 15 15 15 15 15 16 16 16 16 17 17 17 17 17 17
20 19 18 17 17 16 16 16 16 17 17 17 17 17 17 17 16 16 16 16 16 16 16 15 15 15 15 15 15 15 15 15 15 15 15 15 16 16 16 17 17 17 17
21 19 18 17 17 16 16 16 16 16 17 17 17 17 17 16 16 16 16 16 16 16 16 16 15 15 15 15 15 15 15 15 15 15 15 15 15 15 16 16 17 17 18
21 20 19 18 17 17 16 17 17 17 17 17 17 17 17 16 16 16 16 16 16 16 16 16 15 15 15 15 15 15 15 15 15 15 15 15 15 15 15 15 16 16 17
21 20 19 18 18 17 17 17 16 17 17 17 16 16 17 16 16 16 16 16 16 16 16 15 15 15 15 15 15 15 15 15 15 15 15 15 15 15 15 15 15 15 16
22 21 19 19 18 17 17 17 17 16 16 16 17 16 16 16 16 16 16 16 16 16 16 15 15 15 15 15 15 15 15 15 15 15 15 15 15 15 15 15 15 15 15
22 21 20 19 18 18 17 17 17 17 17 17 17 16 16 16 16 16 16 16 16 16 16 16 16 16 15 15 15 15 15 15 15 15 15 14 14 15 15 14 14 15 15
21 21 20 19 19 18 18 17 17 17 17 17 16 16 16 16 16 16 16 16 16 16 16 16 16 16 15 15 15 15 15 15 15 15 15 14 14 14 14 14 14 14 14
21 20 20 19 19 18 18 17 17 17 17 17 16 16 16 16 16 16 16 16 16 16 16 15 15 15 15 15 15 15 15 15 15 15 15 14 14 14 14 14 14 14 14
20 20 19 18 18 18 17 17 17 17 17 17 16 16 16 16 16 16 16 16 16 16 16 15 15 15 15 15 15 15 15 15 15 15 14 14 14 14 14 13 13 13 13
20 19 19 18 18 18 17 17 17 17 17 16 16 16 16 16 16 16 16 16 16 16 15 15 15 15 15 15 15 15 14 14 14 14 14 14 13 13 13 13 13 13 13
20 19 18 18 17 17 17 17 17 17 16 16 16 16 16 16 16 16 16 15 15 15 15 15 15 15 15 15 15 15 14 14 13 13 13 13 13 13 12 12 12 12 12
19 19 18 17 17 17 17 16 16 16 16 16 16 16 16 16 16 15 15 15 15 15 15 14 14 14 14 14 14 14 13 13 13 12 12 12 12 12 12 11 11 11 11
18 17 17 17 17 17 16 16 16 16 15 15 15 15 15 15 15 15 15 14 14 14 14 13 13 13 13 13 13 13 12 12 12 11 11 11 11 11 11 11 10 10 10
16 16 16 16 16 15 15 15 15 15 15 15 14 14 14 14 14 14 14 14 14 13 13 13 12 12 12 12 12 12 11 11 11 10 10 10 10 10 10 10 9 9 9
15 15 15 15 15 15 15 15 14 14 14 14 14 14 13 13 13 13 13 13 12 12 12 12 11 11 11 11 11 11 10 10 9 9 9 9 9 9 9 9 8 8 8
14 14 14 14 14 14 14 14 13 13 13 13 13 13 12 12 12 12 12 12 11 11 11 10 10 10 9 9 9 9 9 9 8 8 8 8 8 8 8 7 7 7 7
13 13 13 13 12 13 13 13 12 12 12 12 12 12 12 11 11 11 11 11 10 10 10 10 9 9 8 8 8 8 8 8 8 7 7 7 7 7 6 6 6 6 6
12 12 12 12 12 12 12 12 12 12 12 12 11 11 11 10 10 10 10 10 10 10 9 9 9 8 7 7 7 7 7 6 6 6 6 6 6 6 5 5 5 5 5
11 11 11 11 11 11 11 11 11 11 11 11 10 10 10 10 9 9 9 9 9 8 8 8 7 7 7 6 6 6 6 6 6 6 6 6 6 5 5 5 5 4 4
10 11 10 10 10 10 10 10 10 10 10 10 10 10 9 9 9 9 8 8 8 7 7 7 6 6 6 5 5 5 5 5 5 5 5 5 5 5 4 4 4 4 4
Wind_Speed
9 9 10 10 11 12 13 14 14 13 11 9 9 8 7 6 5 5 6 6 6 6 5 4 5 5 4 4 5 4 5 4 4 4 4 4 3 2 2 2 2 3 3
9 9 10 10 11 12 13 13 14 13 13 9 8 7 7 6 5 5 6 6 6 7 7 5 5 5 4 5 5 4 4 4 4 3 3 4 5 4 3 3 3 2 3
11 11 11 11 12 12 13 12 13 13 12 11 8 8 6 5 6 6 6 6 7 7 5 6 5 5 6 5 5 5 5 4 4 3 3 3 1 3 5 3 3 3 2
10 11 11 11 12 12 12 12 13 13 13 12 12 13 10 8 8 7 6 7 7 7 7 6 5 5 4 4 5 5 4 5 5 4 2 3 4 3 2 5 5 4 3
11 11 11 11 11 12 12 12 13 12 13 13 13 12 10 8 7 7 8 7 7 7 7 6 5 5 4 4 3 4 4 5 5 4 4 3 3 5 4 2 3 4 4
11 11 10 9 9 11 11 12 12 12 12 13 13 12 11 9 9 9 9 8 7 7 7 7 5 5 4 4 4 4 5 3 3 3 4 4 4 4 4 4 4 4 3
11 11 11 11 10 11 12 12 13 12 13 14 13 13 12 11 11 11 10 9 7 7 8 7 6 5 4 5 4 4 4 4 4 4 4 4 4 4 4 5 5 4 3
11 11 12 11 11 12 12 12 12 12 13 13 13 12 12 10 10 11 9 9 7 7 8 7 7 6 6 5 5 5 5 4 4 5 4 4 4 4 5 5 5 5 5
12 12 12 12 12 13 12 12 12 12 13 13 13 13 12 11 10 10 9 8 7 7 8 8 7 7 6 6 5 4 5 5 5 5 6 6 4 4 5 5 5 6 6
12 12 13 13 12 12 12 12 12 12 12 13 12 11 12 11 10 10 10 8 8 7 8 7 7 7 7 7 7 6 6 6 5 4 4 5 6 5 5 5 5 6 7
13 13 13 13 13 13 13 12 12 12 12 12 12 11 11 11 10 9 9 8 8 8 8 7 7 7 7 7 7 7 6 7 7 7 7 7 6 6 6 6 6 6 7
13 13 13 13 13 14 13 13 12 12 12 12 11 11 10 10 10 10 9 8 8 8 8 7 7 7 7 7 7 8 8 8 8 8 8 8 7 8 8 7 8 7 7
13 13 13 13 13 13 13 13 13 12 12 12 12 11 11 11 10 9 8 8 8 7 7 7 7 7 7 7 7 8 8 8 8 8 9 9 9 9 8 8 9 8 8
13 13 13 12 12 12 12 13 13 12 13 13 12 11 11 10 9 8 8 7 7 7 6 6 6 6 6 6 7 7 8 8 8 8 8 8 8 9 9 9 9 9 9
13 13 13 12 11 11 11 11 12 12 12 12 12 11 11 10 9 8 8 7 6 6 5 5 4 4 4 4 5 5 6 6 6 6 6 6 4 3 5 7 7 8 8
14 13 13 12 12 11 11 11 11 11 12 12 11 11 10 10 9 8 7 6 6 5 4 4 3 2 1 4 4 3 4 3 3 3 3 3 2 3 3 5 6 6 8
13 13 13 12 11 11 11 11 10 10 11 10 10 10 10 9 8 8 7 6 6 5 4 3 3 3 5 7 4 2 1 1 1 1 2 1 3 3 3 3 5 5 4
12 12 11 11 11 11 11 10 11 11 11 10 10 9 9 9 9 8 7 6 5 5 5 4 4 5 7 8 6 3 1 2 3 3 2 2 3 5 5 5 4 4 3
10 10 10 11 10 11 12 12 11 11 11 10 10 9 9 9 9 9 8 7 7 7 7 7 8 8 9 10 8 5 3 3 4 4 4 3 3 7 8 5 5 5 5
10 11 11 12 11 11 12 13 12 12 11 11 10 10 9 10 10 10 9 9 9 9 9 9 9 9 9 11 11 8 3 4 3 3 3 6 5 6 7 6 6 7 7
13 13 13 13 12 13 13 14 14 13 12 12 12 12 11 11 11 11 10 10 9 10 9 9 9 9 9 11 12 10 6 4 3 3 3 4 6 5 6 6 6 6 8
14 14 14 14 13 14 15 16 15 14 14 14 14 13 12 11 11 11 10 9 9 9 8 8 7 6 7 8 9 9 7 6 4 4 4 5 5 5 6 5 5 8 9
14 15 16 16 14 13 16 17 15 14 14 15 14 13 13 11 10 10 10 8 6 6 6 5 5 5 5 5 5 4 4 3 4 4 3 3 5 8 6 4 6 8 8
15 15 17 17 16 14 15 15 14 14 15 15 13 12 12 11 10 8 7 7 6 5 5 4 4 4 4 5 5 4 4 2 3 5 3 7 9 8 6 6 6 6 7
14 15 16 17 16 15 14 14 13 13 14 14 12 11 11 11 10 10 9 8 9 7 5 5 4 4 5 7 9 8 7 8 8 9 7 6 6 7 7 7 7 8 8
15 15 16 16 15 15 14 12 11 12 12 11 10 8 8 8 8 9 10 15 12 13 14 13 9 9 9 6 6 6 6 7 10 10 6 7 8 8 9 9 9 9 9
Wind_Direction
183 178 178 180 180 175 175 179 176 174 170 170 170 170 171 170 171 171 165 169 172 175 196 189 177 209 195 191 186 188 179 189 184 190 178 170 174 169 184 200 206 186 203
179 179 181 181 183 177 179 180 180 177 177 174 170 171 164 170 169 167 162 172 176 182 190 194 192 194 182 186 188 200 203 183 197 225 204 190 178 187 182 186 191 192 195
188 184 184 186 185 183 181 181 179 177 178 167 160 156 155 164 172 170 168 173 179 185 187 188 200 189 200 181 192 197 209 202 195 237 263 254 208 167 167 185 192 205 219
186 183 184 187 189 186 182 180 178 176 174 170 173 175 178 178 181 177 168 171 182 185 181 185 188 194 196 172 199 197 212 220 211 197 249 314 348 291 180 182 182 194 225
184 182 183 183 183 181 180 178 176 177 177 179 180 181 183 179 171 170 165 177 177 182 180 183 184 189 196 185 194 184 224 223 235 220 212 222 236 265 282 242 192 198 207
180 180 178 174 174 175 176 174 174 177 177 180 183 186 182 175 171 176 174 183 178 180 181 185 185 192 190 182 191 196 202 230 245 255 243 243 250 250 257 262 248 236 207
177 176 174 173 175 177 177 176 176 179 180 182 185 186 183 180 183 184 184 186 181 179 178 183 184 187 184 187 188 195 206 205 209 232 243 253 266 277 274 275 274 270 242
177 175 174 173 173 174 175 176 178 180 181 182 183 184 184 188 189 189 186 189 187 180 171 182 187 189 191 194 194 206 203 206 218 229 244 249 246 253 259 269 278 267 252
174 173 173 173 171 172 175 178 177 178 179 180 180 183 187 192 188 182 191 189 185 178 175 185 189 192 198 204 208 216 215 211 224 223 217 237 237 241 251 257 265 274 275
173 172 173 173 173 172 175 175 177 179 178 179 182 182 184 188 186 188 189 186 184 180 179 189 194 198 202 205 215 217 212 218 223 236 241 242 244 239 243 248 251 260 272
171 170 170 171 171 171 172 177 180 179 179 180 181 180 181 181 182 186 188 187 188 185 190 196 202 207 209 209 212 225 216 221 223 224 226 231 249 249 246 243 246 249 255
166 166 167 169 171 172 173 176 178 180 179 177 174 175 175 177 182 187 189 190 192 195 198 201 207 213 214 214 218 225 224 225 229 230 232 235 231 234 250 252 251 251 254
164 165 166 169 173 174 176 178 180 179 175 172 173 174 175 178 183 187 188 193 194 199 204 205 211 217 220 222 227 232 234 234 236 237 237 239 239 239 242 244 251 251 247
165 167 167 170 173 174 176 177 178 176 172 171 172 174 178 178 179 181 185 190 193 198 206 211 217 221 224 230 234 236 239 241 242 242 243 243 242 242 247 248 250 257 261
168 168 168 169 171 171 172 174 176 173 172 171 171 174 173 171 174 175 180 182 187 194 196 203 212 223 232 244 247 246 246 248 249 247 247 249 255 284 272 269 266 261 258
170 168 168 168 170 170 169 170 172 171 170 171 171 167 164 165 167 168 171 173 178 184 180 186 185 195 256 50 37 300 273 266 260 263 266 258 254 264 255 276 285 288 274
170 167 166 165 164 164 163 163 162 159 159 160 158 156 158 157 158 161 161 160 156 147 142 141 131 107 61 55 64 48 337 355 351 344 330 327 20 14 322 272 244 258 263
164 161 158 154 154 153 152 150 149 148 146 145 146 147 147 147 144 140 137 132 127 124 120 114 106 90 62 50 50 44 86 63 53 46 41 33 24 15 350 320 306 298 295
148 144 144 144 144 144 141 138 138 138 136 137 138 138 138 135 130 126 122 118 113 106 99 91 87 83 64 45 36 13 82 75 64 52 47 36 33 22 351 323 311 304 296
131 130 130 129 128 132 134 132 131 129 127 126 123 123 123 122 119 116 113 109 107 104 98 89 81 77 68 51 38 8 47 58 47 51 61 62 33 15 353 328 315 307 311
121 121 119 117 118 122 123 120 115 113 113 111 109 107 106 108 108 105 104 105 104 100 95 92 85 78 70 68 51 32 33 22 9 1 354 38 41 4 338 312 310 317 310
117 114 110 106 108 113 112 107 104 105 106 104 101 100 100 102 103 102 99 99 104 106 101 96 88 83 74 60 58 50 39 4 2 350 353 19 13 331 307 304 320 299 288
111 110 108 103 100 103 107 107 108 109 107 104 101 100 98 96 99 102 103 101 99 97 96 93 88 78 69 77 84 70 52 7 353 353 9 322 288 281 273 235 265 281 291
109 109 108 104 99 97 99 103 108 110 108 105 103 103 101 98 91 88 89 87 84 86 88 81 77 77 71 42 23 16 17 360 343 340 280 231 241 257 280 289 284 300 317
106 105 104 103 102 100 98 101 106 108 107 106 106 104 100 97 90 78 61 71 63 58 57 64 59 47 53 40 19 8 8 357 352 325 311 321 330 327 332 330 328 323 320
105 104 104 103 103 101 99 99 103 106 108 108 107 107 107 106 106 103 89 60 69 72 65 52 48 67 65 53 33 22 360 335 321 314 332 339 338 336 336 332 329 328 328
Height
1497 1499 1500 1502 1504 1507 1511 1514 1518 1522 1526 1531 1535 1538 1542 1545 1548 1550 1552 1554 1556 1558 1559 1562 1562 1564 1565 1566 1568 1569 1570 1572 1573 1575 1575 1576 1576 1577 1577 1578 1578 1579 1579
1495 1497 1499 1501 1503 1505 1509 1512 1516 1520 1524 1529 1533 1537 1541 1544 1546 1549 1551 1553 1555 1557 1559 1560 1562 1563 1564 1565 1567 1568 1570 1571 1572 1574 1575 1575 1577 1576 1577 1577 1577 1578 1579
1493 1495 1497 1499 1501 1504 1507 1510 1514 1519 1523 1527 1531 1535 1539 1542 1545 1547 1549 1552 1554 1556 1557 1559 1561 1562 1563 1565 1565 1567 1569 1571 1572 1573 1574 1574 1574 1575 1576 1576 1576 1577 1578
1491 1494 1496 1498 1500 1502 1505 1508 1512 1516 1520 1525 1529 1533 1536 1539 1543 1546 1548 1550 1553 1554 1556 1558 1559 1560 1563 1563 1565 1566 1568 1569 1571 1572 1572 1573 1573 1574 1574 1575 1575 1576 1576
1489 1492 1494 1495 1498 1500 1503 1506 1510 1514 1518 1522 1527 1531 1535 1538 1542 1544 1546 1549 1551 1553 1555 1557 1558 1559 1561 1562 1563 1564 1566 1568 1570 1571 1572 1573 1573 1574 1574 1574 1575 1575 1575
1487 1490 1492 1494 1496 1499 1502 1505 1508 1512 1516 1520 1524 1529 1533 1536 1539 1542 1545 1548 1550 1552 1554 1555 1557 1558 1560 1561 1562 1563 1565 1566 1568 1569 1571 1572 1573 1573 1573 1573 1573 1574 1574
1485 1487 1490 1492 1495 1497 1500 1503 1506 1510 1514 1518 1522 1526 1531 1534 1538 1541 1544 1547 1550 1551 1552 1555 1556 1558 1559 1560 1561 1562 1564 1565 1566 1567 1569 1570 1571 1571 1572 1572 1572 1572 1572
1482 1485 1488 1491 1493 1496 1498 1501 1504 1508 1512 1516 1520 1525 1529 1533 1537 1540 1543 1546 1549 1551 1552 1553 1555 1557 1558 1559 1560 1562 1563 1563 1564 1565 1566 1567 1568 1569 1570 1571 1571 1570 1570
1480 1484 1487 1490 1493 1495 1497 1500 1503 1507 1510 1514 1518 1523 1527 1531 1535 1538 1541 1545 1547 1549 1550 1552 1554 1556 1557 1558 1559 1561 1561 1562 1563 1564 1564 1565 1566 1566 1567 1568 1568 1569 1568
1479 1482 1486 1489 1492 1494 1497 1500 1503 1506 1510 1514 1517 1521 1525 1529 1533 1536 1539 1543 1545 1547 1550 1551 1553 1554 1556 1556 1557 1559 1559 1560 1560 1561 1562 1562 1564 1564 1564 1565 1565 1565 1566
1477 1481 1484 1488 1491 1494 1497 1499 1503 1506 1509 1512 1516 1520 1523 1527 1530 1534 1538 1541 1543 1546 1548 1550 1551 1553 1554 1555 1556 1557 1557 1558 1558 1559 1559 1559 1560 1561 1562 1562 1562 1562 1563
1475 1480 1483 1487 1490 1493 1496 1499 1502 1505 1508 1511 1514 1518 1521 1525 1529 1533 1536 1539 1541 1544 1546 1548 1550 1551 1552 1553 1553 1554 1555 1555 1556 1556 1556 1557 1557 1557 1558 1558 1558 1559 1558
1475 1479 1482 1486 1489 1492 1495 1498 1501 1504 1507 1510 1513 1516 1519 1523 1526 1530 1534 1537 1539 1541 1544 1545 1547 1548 1549 1550 1551 1552 1552 1552 1553 1553 1553 1553 1553 1553 1554 1554 1554 1555 1555
1473 1477 1481 1484 1487 1491 1494 1497 1500 1503 1505 1508 1512 1515 1518 1521 1524 1528 1531 1534 1537 1539 1541 1543 1544 1546 1546 1547 1548 1548 1548 1549 1549 1549 1549 1549 1549 1549 1550 1550 1549 1550 1550
1472 1475 1479 1482 1485 1489 1492 1495 1498 1501 1504 1507 1510 1513 1517 1520 1523 1526 1529 1532 1534 1537 1538 1540 1541 1542 1543 1544 1544 1545 1545 1545 1545 1545 1545 1545 1545 1544 1545 1545 1545 1545 1545
1469 1473 1476 1480 1483 1486 1490 1493 1496 1499 1502 1505 1509 1512 1515 1518 1521 1524 1527 1529 1531 1533 1535 1537 1538 1539 1540 1540 1540 1541 1541 1541 1541 1541 1540 1540 1540 1539 1539 1539 1539 1539 1539
1467 1471 1474 1477 1481 1484 1487 1491 1494 1497 1501 1504 1507 1510 1513 1516 1519 1522 1524 1527 1529 1530 1532 1533 1534 1535 1536 1536 1537 1537 1537 1537 1537 1536 1536 1536 1535 1535 1534 1534 1533 1533 1532
1466 1469 1473 1476 1479 1483 1486 1489 1493 1496 1499 1502 1506 1509 1512 1515 1517 1520 1522 1524 1526 1528 1529 1531 1532 1532 1532 1533 1533 1533 1533 1533 1533 1532 1532 1531 1531 1530 1530 1529 1528 1528 1527
1465 1468 1471 1475 1478 1482 1485 1488 1492 1495 1498 1502 1505 1508 1511 1514 1516 1518 1520 1522 1524 1526 1527 1529 1529 1530 1530 1530 1530 1530 1530 1530 1529 1529 1528 1527 1527 1526 1525 1525 1524 1523 1522
1464 1467 1471 1474 1477 1481 1484 1488 1491 1495 1498 1501 1504 1508 1510 1513 1515 1517 1519 1521 1523 1524 1526 1527 1528 1528 1529 1529 1529 1529 1529 1528 1528 1527 1526 1524 1523 1522 1521 1520 1519 1518 1517
1465 1468 1471 1475 1478 1481 1485 1488 1492 1495 1498 1501 1505 1507 1510 1513 1515 1517 1519 1521 1523 1524 1525 1526 1527 1527 1528 1527 1527 1527 1527 1527 1526 1526 1525 1523 1520 1519 1517 1516 1515 1513 1511
1467 1469 1472 1476 1480 1483 1486 1489 1492 1496 1500 1503 1506 1508 1511 1514 1516 1518 1519 1521 1523 1524 1525 1526 1527 1527 1527 1527 1526 1525 1525 1524 1524 1523 1522 1520 1517 1515 1514 1512 1510 1509 1507
1469 1472 1475 1478 1483 1486 1489 1491 1495 1499 1502 1505 1508 1510 1513 1515 1517 1519 1521 1522 1524 1525 1526 1527 1527 1528 1528 1527 1525 1524 1523 1522 1521 1520 1519 1517 1515 1513 1511 1509 1507 1505 1504
1472 1475 1478 1481 1485 1490 1492 1495 1499 1502 1505 1507 1510 1513 1515 1517 1519 1521 1523 1524 1525 1526 1527 1527 1528 1528 1527 1527 1525 1524 1523 1521 1520 1518 1516 1514 1512 1511 1509 1507 1506 1504 1502
1476 1479 1483 1486 1489 1493 1496 1500 1503 1506 1508 1510 1513 1516 1517 1519 1520 1522 1523 1525 1525 1526 1527 1527 1528 1527 1527 1525 1523 1522 1521 1519 1517 1516 1515 1514 1512 1510 1508 1506 1503 1501 1499
1480 1484 1488 1491 1494 1498 1501 1505 1507 1510 1511 1513 1516 1518 1520 1521 1522 1523 1524 1524 1525 1526 1526 1526 1526 1525 1524 1523 1522 1521 1519 1517 1515 1514 1514 1512 1510 1508 1505 1503 1500 1498 1495